Dauntless Aviation
Airports North America United States Texas
63TE

FLYING S RANCH AIRPORT

KENNARD, TX, USA

Airport Info
Suggest Updated Information for this Airport

Location

Latitude / Longitude: 31°21'12"N / 95°12'20"W
  31°21.2109'N / 95°12.3463'W
  31.3535 / -95.2058
Elevation: 370 ft. (estimated)
Variation: 06E (1985)
From city: 01 miles SW of KENNARD, TX

Operations

Facility use: Private
Sectional chart: HOUSTON
Control tower: no
Boundary ARTCC: HOUSTON
FSS: MONTGOMERY COUNTY [1-800-WX-BRIEF]
Segmented circle: no

Communications

Nearby radio navigation aids

VOR radial/distance VOR name Freq Var
LFK 295oT/27.6 LUFKIN VORTAC 112.10 05E
 
NDB name Hdg/Dist Freq Var ID
NADOS 252oT/26.1 253 05E OC
CHEROKEE COUNTY 179oT/31.0 263 05E JSO
NACOGDOCHES 235oT/31.1 391 05E GXD
PALESTINE 135oT/36.0 375 04E PSN

Services

Runway Information

Runway 14/32

Dimensions: 2000 x 100 ft.
Surface: NATURAL SOIL,NO SPECIAL SURFACE TREATMENT
 
Runway 14
Runway 32
 

Additional Remarks

Instrument Procedures

No published instrument procedures available
Topographic chart at:
Satellite photo at:
Airport distance calculator
From:
Weather Reports

METAR

KDKR
10.5nm SW
KDKR 010315Z AUTO 16006KT 10SM SCT001 25/20 A2992 RMK AO2 LTG DSNT NE AND S AND W
KLFK
24.5nm E
KLFK 010253Z AUTO 17004KT 10SM BKN060 25/21 A2992 RMK AO2 LTG DSNT NW-NE SLP128 T02500206 53028
KOCH
28.1nm NE
KOCH 010315Z AUTO 18004KT 10SM TS BKN045 BKN055 24/23 A2991 RMK AO1 LTG DSNT W
KJSO
30.8nm NW
KJSO 010315Z AUTO 02006KT 10SM CLR 21/18 A2996 RMK AO2 LTG DSNT E AND SE T02130188
KPSN
36.1nm NW
KPSN 010315Z AUTO 33010G15KT 10SM BKN014 BKN030 OVC036 21/19 A2995 RMK AO2 T02180197

TAF

KLFK
24.5nm E
KLFK 312347Z 0100/0124 16003KT P6SM FEW050 SCT180 BKN250 FM010200 VRB03KT P6SM FEW050 BKN150 BKN250 TEMPO 0110/0113 1SM BR BKN003 FM011300 VRB03KT 4SM BR BKN005 FM011500 15005KT P6SM BKN015 FM011700 16007KT P6SM VCTS BKN035CB
Safelog

 

Dauntless Aviation

© 2007-2016 Dauntless Aviation, all rights reserved
Information provided via PilotNav comes from a variety of official and unofficial data sources. As errors are possible, do not use PilotNav for primary flight planning purposes. Verify any information that you receive via PilotNav with current and canonical charts and other official documents. The material in this database is subject to database copyrights held by Dauntless Aviation and may not be copied without the express permission of Dauntless Aviation - licenses for use of part of all of this data are available for purchase; enquire via the Dauntless Aviation helpdesk. A number of mechanisms and markers exist in the database to protect against and identify infringement / copyright. Automated queries against this website are stictly prohibited, and all activity is logged and analyzed.